[[{"header":{"parameterUnit":"m.s-1","parameterCategory":1,"la1":30.2991,"la2":30.254,"lo1":-89.0895,"lo2":-89.0444,"dy":0.0017,"dx":0.0017,"nx":28,"ny":28,"refTime":"2025-01-18T03:00:00:Z","depth":0,"parameterNumber":2,"parameterNumberName":"U-component_of_WINDS"},"data":[0,0,0,0,0,0,0,0,0,0,0,0,0,0,0,0,0,0,0,0,0,0,0,0,0,0,0,0,0,0,0,0,0,0,0,0,0,0,0,0,0,0,0,0,0,0,0,0,0,0,0,0,0,0,0,0,0,0,2.5292,2.5292,0,2.5313,2.5314,2.5314,2.5287,2.5286,2.5285,2.5284,2.5306,2.5307,2.5309,0,0,0,0,0,0,0,0,0,0,0,0,0,2.5228,2.5229,2.5292,2.5292,2.5292,2.5313,2.5314,2.5314,2.5287,2.5286,2.5285,2.5284,2.5305,2.5307,2.5309,0,0,0,0,0,0,0,0,0,0,0,0,0,2.5253,2.523,2.5292,2.5281,2.5281,2.5313,2.5314,2.5314,2.5287,2.5286,2.5285,2.5283,2.5305,2.5307,2.5309,2.5352,0,0,2.5316,2.5317,0,0,0,0,0,0,0,0,2.5252,2.5255,2.5283,2.5282,2.5282,2.5296,2.5299,2.5327,2.5288,2.5285,2.5284,2.5282,2.5304,2.5306,2.5313,2.5354,2.5354,2.5316,2.5318,2.5318,2.5319,0,0,0,0,0,0,0,2.525,2.5254,2.53,2.5283,2.5282,2.5276,2.5278,2.5304,2.5302,2.5285,2.5283,2.5286,2.5303,2.5311,2.5314,2.5355,2.5316,2.5318,2.5319,2.532,2.5433,2.5435,0,0,0,0,0,0,2.5249,2.5253,2.53,2.5301,2.5263,2.5278,2.5281,2.5293,2.5302,2.5302,2.5287,2.5285,2.5308,2.5311,2.5314,2.5366,2.5318,2.5321,2.5322,2.5432,2.5434,2.5435,0,0,0,0,0,0,2.5248,2.5254,2.5299,2.5277,2.5282,2.5281,2.5295,2.5294,2.5302,2.5304,2.5303,2.5296,2.5307,2.5311,2.5344,2.5366,2.5322,2.5324,2.543,2.5432,2.5434,2.547,0,0,0,0,0,0,2.5246,2.5253,2.527,2.5277,2.5283,2.5327,2.5296,2.5296,2.5306,2.5303,2.5312,2.5312,2.5306,2.534,2.5346,2.5369,2.5325,2.5428,2.5431,2.5434,2.5467,2.5473,2.5479,0,0,0,0,0,2.5244,2.5278,2.5271,2.5276,2.5303,2.5329,2.5332,2.5325,2.5308,2.5324,2.5326,2.5311,2.5363,2.5344,2.535,2.5374,2.5426,2.543,2.5433,2.5464,2.5472,2.5479,0,0,0,0,0,0,2.5273,2.5279,2.527,2.5308,2.5318,2.5324,2.5344,2.5334,2.5349,2.5345,2.5336,2.5339,2.5373,2.5377,2.5355,2.5417,2.5392,2.5397,2.5413,2.5421,2.5427,2.5425,2.5327,0,0,0,0,0,2.5284,2.5304,2.5308,2.5341,2.5347,2.5345,2.5356,2.535,2.536,2.5364,2.5368,2.5378,2.5397,2.5409,2.5426,2.5468,2.547,2.5487,2.5494,2.5499,2.5503,2.5526,2.5534,2.5448,2.5448,2.5447,0,0,2.5306,2.5312,2.5325,2.5347,2.5354,2.5376,2.5349,2.5372,2.5388,2.5367,2.5398,2.5402,2.5413,2.545,2.5467,2.5454,2.5527,2.5503,2.5507,2.5509,2.5531,2.5539,2.5546,2.545,2.545,2.5449,0,0,2.5357,2.5364,2.5392,2.54,2.5412,2.5411,2.5418,2.5426,2.5428,2.5459,2.5444,2.5463,2.5496,2.5504,2.5513,2.557,2.5558,2.5576,2.5608,2.5631,2.5638,2.5644,2.5664,2.5672,2.5581,2.5581,2.5581,0,2.5383,2.5415,2.5408,2.5433,2.5444,2.5427,2.5456,2.5464,2.5481,2.5489,2.5475,2.5516,2.5522,2.5562,2.5576,2.5583,2.5591,2.5575,2.5637,2.5643,2.5649,2.5668,2.5676,2.5583,2.5583,2.5583,2.5582,0,2.5447,2.5469,2.5491,2.5508,2.5521,2.5548,2.5545,2.556,2.5553,2.5554,2.5587,2.5594,2.5613,2.5622,2.5616,2.5661,2.5653,2.5639,2.5613,2.5659,2.5677,2.5685,2.5586,2.5585,2.5585,2.5584,0,0,2.5515,2.5529,2.5537,2.5545,2.5558,2.5575,2.5602,2.5621,2.5634,2.5646,2.5669,2.5698,2.5684,2.5694,2.5689,2.5709,2.5755,2.5692,2.5692,2.5703,2.5806,2.5817,2.5826,2.5747,2.5749,2.575,2.5805,0,2.5566,2.5613,2.5608,2.5652,2.5673,2.5659,2.5682,2.5693,2.5695,2.5713,2.5715,2.5736,2.5717,2.5723,2.5742,2.5745,2.5775,2.5741,2.5768,2.5769,2.5765,2.5835,2.5846,2.5898,2.5812,2.5814,2.5815,0,2.5632,2.5648,2.5694,2.5705,2.5714,2.5735,2.5753,2.577,2.5783,2.5783,2.5795,2.5787,2.5815,2.5789,2.5828,2.5805,2.5816,2.5819,2.5821,2.5822,2.5794,2.5838,2.5915,2.5922,2.5826,2.5825,2.5824,0,2.5677,2.571,2.5742,2.575,2.5763,2.5778,2.5785,2.5795,2.5808,2.5824,2.5832,2.5851,2.5861,2.5876,2.5874,2.5855,2.5913,2.5887,2.5914,2.5914,2.5926,2.5925,2.6004,2.5934,2.5934,2.5934,2.5933,0,2.5735,2.5764,2.5763,2.5783,2.5815,2.581,2.5843,2.5847,2.5857,2.5878,2.5867,2.5887,2.5883,2.5903,2.5901,2.5934,2.5938,2.5939,2.5938,2.594,2.594,2.5946,2.5942,2.5936,2.5935,2.5935,2.5934,0,2.579,2.5791,2.5825,2.5835,2.5839,2.5862,2.5871,2.589,2.5892,2.5919,2.5925,2.5927,2.5951,2.595,2.5976,2.5975,2.6015,2.601,2.6011,2.601,2.6036,2.6034,2.6122,2.6134,2.6056,2.6057,2.6057,0,2.5826,2.5848,2.5862,2.5875,2.5883,2.5904,2.5917,2.5914,2.5928,2.5944,2.5962,2.5984,2.6001,2.6039,2.6044,2.6064,2.6059,2.6089,2.6062,2.6063,2.606,2.6058,2.6061,2.6094,2.6095,2.6095,2.6096,0,2.5891,2.5891,2.5909,2.5929,2.5945,2.596,2.5974,2.5986,2.5985,2.6001,2.6025,2.6039,2.6066,2.6088,2.6108,2.6115,2.6106,2.6105,2.6112,2.6113,2.6113,2.6113,2.6025,2.6102,2.6102,2.6101,2.6101,2.6101,2.5938,2.5957,2.597,2.5992,2.6002,2.6016,2.6035,2.604,2.6059,2.6081,2.6079,2.6106,2.6119,2.6145,2.6154,2.6175,2.6164,2.6175,2.6177,2.618,2.6183,2.611,2.6178,2.6178,2.6178,2.6178,2.6178,0,2.6001,2.6009,2.603,2.605,2.6068,2.6058,2.6074,2.6089,2.6113,2.6126,2.6144,2.6172,2.6194,2.6202,2.6223,2.6239,2.6235,2.6245,2.6243,2.6245,2.6191,2.6182,2.6247,2.6247,2.6247,2.6247,2.6247,2.6247,2.6037,2.6069,2.6071,2.6109,2.6117,2.6143,2.6153,2.6166,2.6176,2.6208,2.6227,2.6232,2.6243,2.6265,2.6286,2.6287,2.6296,2.6307,2.6307,2.6256,2.6249,2.6242,2.6234,2.6309,2.6309,2.6359,2.636,2.636]},{"header":{"parameterUnit":"m.s-1","parameterCategory":1,"la1":30.2991,"la2":30.254,"lo1":-89.0895,"lo2":-89.0444,"dy":0.0017,"dx":0.0017,"nx":28,"ny":28,"refTime":"2025-01-18T03:00:00:Z","depth":0,"parameterNumber":3,"parameterNumberName":"V-component_of_WINDS"},"data":[0,0,0,0,0,0,0,0,0,0,0,0,0,0,0,0,0,0,0,0,0,0,0,0,0,0,0,0,0,0,0,0,0,0,0,0,0,0,0,0,0,0,0,0,0,0,0,0,0,0,0,0,0,0,0,0,0,0,-8.1978,-8.198,0,-8.217,-8.2172,-8.2174,-8.2113,-8.2108,-8.2104,-8.2101,-8.2292,-8.2301,-8.2309,0,0,0,0,0,0,0,0,0,0,0,0,0,-8.1554,-8.1563,-8.1978,-8.198,-8.1983,-8.2169,-8.2172,-8.2175,-8.2113,-8.2108,-8.2103,-8.2099,-8.2289,-8.2299,-8.231,0,0,0,0,0,0,0,0,0,0,0,0,0,-8.1741,-8.1565,-8.1977,-8.1975,-8.1976,-8.2169,-8.2172,-8.2175,-8.2114,-8.2108,-8.2102,-8.2096,-8.2285,-8.2298,-8.2312,-8.2517,0,0,-8.2352,-8.2358,0,0,0,0,0,0,0,0,-8.1731,-8.1757,-8.1973,-8.1975,-8.1977,-8.2111,-8.2093,-8.229,-8.2116,-8.2062,-8.21,-8.2093,-8.2236,-8.2253,-8.2303,-8.2526,-8.2534,-8.2354,-8.2362,-8.2367,-8.2371,0,0,0,0,0,0,0,-8.1718,-8.1748,-8.2053,-8.1976,-8.1979,-8.1963,-8.1982,-8.213,-8.2181,-8.2066,-8.2062,-8.2086,-8.2236,-8.229,-8.2307,-8.2537,-8.2353,-8.2365,-8.2373,-8.2379,-8.2938,-8.2945,0,0,0,0,0,0,-8.1704,-8.1738,-8.2047,-8.2059,-8.1837,-8.1975,-8.1997,-8.2074,-8.2179,-8.2189,-8.2091,-8.2082,-8.227,-8.2291,-8.2313,-8.2561,-8.2367,-8.238,-8.2388,-8.2932,-8.294,-8.2947,0,0,0,0,0,0,-8.1695,-8.1732,-8.204,-8.1898,-8.1936,-8.1989,-8.2076,-8.2081,-8.2135,-8.2198,-8.2206,-8.2137,-8.2266,-8.2294,-8.2467,-8.2567,-8.2386,-8.2398,-8.2924,-8.2934,-8.2944,-8.3058,0,0,0,0,0,0,-8.1683,-8.173,-8.1809,-8.19,-8.1944,-8.2192,-8.2082,-8.2089,-8.2159,-8.2149,-8.2243,-8.2253,-8.2263,-8.2448,-8.248,-8.2582,-8.2408,-8.2915,-8.2928,-8.294,-8.3045,-8.3071,-8.3092,0,0,0,0,0,-8.1669,-8.1832,-8.1813,-8.1851,-8.2044,-8.2198,-8.2223,-8.2233,-8.2167,-8.2247,-8.2287,-8.225,-8.2551,-8.2466,-8.2502,-8.2609,-8.2909,-8.2924,-8.2939,-8.3035,-8.3066,-8.3092,0,0,0,0,0,0,-8.1749,-8.1844,-8.1824,-8.2023,-8.2103,-8.2187,-8.2288,-8.2266,-8.2365,-8.2352,-8.2359,-8.2381,-8.2559,-8.2601,-8.2505,-8.2813,-8.2719,-8.2743,-8.278,-8.2809,-8.2833,-8.2818,-8.242,0,0,0,0,0,-8.1791,-8.1909,-8.1985,-8.2152,-8.2194,-8.2235,-8.2302,-8.2303,-8.2386,-8.2419,-8.2473,-8.2553,-8.2666,-8.274,-8.2847,-8.3051,-8.3071,-8.3143,-8.3166,-8.3185,-8.3205,-8.3317,-8.335,-8.2998,-8.2998,-8.2998,0,0,-8.1877,-8.1943,-8.2017,-8.2171,-8.2233,-8.2355,-8.2264,-8.2396,-8.2486,-8.2439,-8.2606,-8.2648,-8.2738,-8.2928,-8.3014,-8.2969,-8.3307,-8.3205,-8.3219,-8.3229,-8.3336,-8.3369,-8.3399,-8.3008,-8.3007,-8.3005,0,0,-8.2095,-8.2158,-8.2304,-8.237,-8.2466,-8.2492,-8.2528,-8.2616,-8.2643,-8.2811,-8.2779,-8.2885,-8.3079,-8.3145,-8.3204,-8.3449,-8.3418,-8.3484,-8.3607,-8.3715,-8.3743,-8.3768,-8.3855,-8.3887,-8.3504,-8.3504,-8.3504,0,-8.2189,-8.2373,-8.2382,-8.2518,-8.2587,-8.2552,-8.2701,-8.2763,-8.2889,-8.2936,-8.2884,-8.3127,-8.3186,-8.3391,-8.3451,-8.3499,-8.3539,-8.3473,-8.3738,-8.3763,-8.3786,-8.387,-8.3903,-8.3511,-8.3511,-8.351,-8.3509,0,-8.2484,-8.2611,-8.2718,-8.2843,-8.2923,-8.3065,-8.3095,-8.3175,-8.317,-8.3201,-8.3373,-8.3442,-8.3563,-8.3611,-8.3606,-8.3816,-8.3785,-8.3736,-8.3641,-8.3827,-8.3906,-8.3938,-8.3522,-8.3519,-8.3517,-8.3515,0,0,-8.2758,-8.2888,-8.2927,-8.2984,-8.3088,-8.3186,-8.3326,-8.3446,-8.3515,-8.3603,-8.3719,-8.3885,-8.3841,-8.3908,-8.391,-8.4006,-8.4196,-8.3945,-8.3947,-8.3989,-8.4431,-8.4468,-8.4505,-8.4176,-8.4182,-8.4187,-8.4424,0,-8.2985,-8.3233,-8.3246,-8.347,-8.3588,-8.3558,-8.3679,-8.3756,-8.3789,-8.3893,-8.3928,-8.4046,-8.3979,-8.4019,-8.4112,-8.4153,-8.4285,-8.4136,-8.4284,-8.4289,-8.4263,-8.4546,-8.4585,-8.4805,-8.4455,-8.446,-8.4464,0,-8.3284,-8.3384,-8.362,-8.3709,-8.3759,-8.3869,-8.398,-8.408,-8.4166,-8.4184,-8.426,-8.4249,-8.439,-8.4292,-8.4487,-8.4386,-8.4447,-8.4476,-8.4485,-8.4499,-8.4388,-8.4568,-8.4875,-8.4909,-8.4512,-8.4508,-8.4505,0,-8.3461,-8.3654,-8.3821,-8.387,-8.3978,-8.4056,-8.4104,-8.4184,-8.4256,-8.4353,-8.4399,-8.4511,-8.4572,-8.4658,-8.4677,-8.4603,-8.4873,-8.4775,-8.489,-8.489,-8.4948,-8.4944,-8.527,-8.4988,-8.4987,-8.4987,-8.4986,0,-8.3714,-8.386,-8.3902,-8.4005,-8.4167,-8.4181,-8.4341,-8.4383,-8.4455,-8.4565,-8.4544,-8.4647,-8.4666,-8.4773,-8.4788,-8.4948,-8.4975,-8.4992,-8.4995,-8.4995,-8.4993,-8.5035,-8.502,-8.4995,-8.4993,-8.4992,-8.499,0,-8.3939,-8.3973,-8.4153,-8.4241,-8.4266,-8.4382,-8.4457,-8.4555,-8.4586,-8.4725,-8.4758,-8.4807,-8.4931,-8.4959,-8.5106,-8.5116,-8.5306,-8.5293,-8.5278,-8.5277,-8.539,-8.538,-8.5755,-8.5805,-8.5489,-8.5492,-8.5495,0,-8.4098,-8.421,-8.4311,-8.4384,-8.4436,-8.4553,-8.4627,-8.4645,-8.4722,-8.4829,-8.4914,-8.5037,-8.5136,-8.5337,-8.5384,-8.5497,-8.5486,-8.561,-8.5503,-8.55,-8.5489,-8.5482,-8.5493,-8.563,-8.5634,-8.5637,-8.5639,0,-8.4377,-8.4389,-8.4497,-8.4612,-8.4701,-8.4792,-8.4878,-8.4938,-8.4967,-8.5055,-8.5184,-8.5261,-8.5413,-8.5535,-8.5648,-8.5695,-8.5673,-8.5672,-8.5705,-8.5706,-8.5693,-8.5702,-8.5334,-8.5664,-8.5661,-8.5659,-8.5658,-8.5657,-8.4574,-8.4673,-8.476,-8.4881,-8.4948,-8.503,-8.5126,-8.5171,-8.5279,-8.5405,-8.5408,-8.5548,-8.5631,-8.5782,-8.5836,-8.5945,-8.5907,-8.5954,-8.5966,-8.5977,-8.5988,-8.5676,-8.5966,-8.5965,-8.5964,-8.5964,-8.5963,0,-8.4853,-8.4907,-8.5019,-8.5142,-8.5237,-8.5209,-8.5303,-8.5384,-8.5508,-8.5589,-8.5688,-8.5835,-8.5954,-8.6011,-8.6128,-8.6204,-8.6197,-8.6234,-8.6229,-8.624,-8.6015,-8.5976,-8.6239,-8.6239,-8.6239,-8.6239,-8.6239,-8.6239,-8.5009,-8.5174,-8.5196,-8.5395,-8.5448,-8.5587,-8.5643,-8.5718,-8.5782,-8.5949,-8.6048,-8.6086,-8.6157,-8.6279,-8.6386,-8.64,-8.6444,-8.6487,-8.6496,-8.6284,-8.6256,-8.6229,-8.6192,-8.6496,-8.6497,-8.6711,-8.6713,-8.6715]}]]